When you browse on this site, cookies collect data to enhance your experience and personalize the content and advertising you see.
Visit our Privacy Policy to learn more. By continuing to use the site, you agree to this use of cookies and data.
  • In Austria
  • List of Countries
  • For 7 days
  • Water Temperature
  • Weather Map
  • News
  • Weather Widgets
  • user-avatar
    Login

    Hourly Weather San Luis

    Today, 15 December, Sunday

    Time Temperature Precipitation Wind Pressure Humidity
    00:00 +20°C° 0 mm 5 mps 696 mmHg 57%
    01:00 +19°C° 0 mm 5 mps 696 mmHg 61%
    02:00 +17°C° 0 mm 5 mps 695 mmHg 66%
    03:00 +18°C° 0.1 mm 4 mps 696 mmHg 72%
    04:00 +17°C° 0.1 mm 4 mps 696 mmHg 78%
    05:00 +17°C° 0.1 mm 4 mps 696 mmHg 84%
    06:00 +19°C° 0 mm 4 mps 697 mmHg 72%
    07:00 +21°C° 0 mm 5 mps 698 mmHg 60%
    08:00 +23°C° 0 mm 5 mps 698 mmHg 48%
    09:00 +26°C° 0 mm 6 mps 699 mmHg 42%
    10:00 +27°C° 0 mm 6 mps 699 mmHg 36%
    11:00 +28°C° 0 mm 6 mps 699 mmHg 30%
    12:00 +29°C° 0 mm 6 mps 698 mmHg 28%
    13:00 +30°C° 0 mm 5 mps 698 mmHg 27%
    14:00 +30°C° 0 mm 5 mps 697 mmHg 25%
    15:00 +30°C° 0 mm 5 mps 696 mmHg 24%
    16:00 +30°C° 0 mm 5 mps 696 mmHg 23%
    17:00 +30°C° 0 mm 4 mps 695 mmHg 22%
    18:00 +28°C° 0 mm 4 mps 695 mmHg 24%
    19:00 +26°C° 0 mm 4 mps 696 mmHg 25%
    20:00 +25°C° 0 mm 4 mps 696 mmHg 27%
    21:00 +23°C° 0 mm 4 mps 696 mmHg 26%
    22:00 +23°C° 0 mm 5 mps 697 mmHg 26%
    23:00 +22°C° 0 mm 5 mps 697 mmHg 25%

    Tomorrow, 16 December, Monday

    Time Temperature Precipitation Wind Pressure Humidity
    00:00 +22°C° 0 mm 5 mps 697 mmHg 26%
    01:00 +21°C° 0 mm 4 mps 697 mmHg 26%
    02:00 +21°C° 0 mm 4 mps 697 mmHg 27%
    03:00 +20°C° 0 mm 3 mps 697 mmHg 31%
    04:00 +19°C° 0 mm 2 mps 697 mmHg 36%
    05:00 +20°C° 0 mm 1 mps 697 mmHg 40%
    06:00 +20°C° 0 mm 2 mps 698 mmHg 35%
    07:00 +23°C° 0 mm 2 mps 698 mmHg 29%
    08:00 +25°C° 0 mm 3 mps 699 mmHg 24%
    09:00 +26°C° 0 mm 3 mps 699 mmHg 22%
    10:00 +27°C° 0 mm 3 mps 699 mmHg 19%
    11:00 +28°C° 0 mm 3 mps 699 mmHg 17%
    12:00 +29°C° 0 mm 3 mps 699 mmHg 16%
    13:00 +30°C° 0 mm 2 mps 698 mmHg 14%
    14:00 +31°C° 0 mm 2 mps 698 mmHg 13%
    15:00 +31°C° 0 mm 3 mps 697 mmHg 12%
    16:00 +31°C° 0 mm 3 mps 696 mmHg 11%
    17:00 +31°C° 0 mm 3 mps 696 mmHg 11%
    18:00 +29°C° 0 mm 3 mps 696 mmHg 13%
    19:00 +27°C° 0 mm 3 mps 696 mmHg 15%
    20:00 +24°C° 0 mm 3 mps 696 mmHg 17%
    21:00 +22°C° 0 mm 4 mps 696 mmHg 25%
    22:00 +22°C° 0 mm 5 mps 697 mmHg 33%
    23:00 +21°C° 0 mm 6 mps 697 mmHg 41%

    Day after tomorrow, 17 December, Tuesday

    Time Temperature Precipitation Wind Pressure Humidity
    00:00 +20°C° 0 mm 6 mps 697 mmHg 43%
    01:00 +20°C° 0 mm 6 mps 696 mmHg 45%
    02:00 +20°C° 0 mm 6 mps 696 mmHg 47%
    03:00 +19°C° 0 mm 6 mps 696 mmHg 46%
    04:00 +19°C° 0 mm 5 mps 696 mmHg 44%
    05:00 +19°C° 0 mm 4 mps 696 mmHg 43%
    06:00 +22°C° 0 mm 5 mps 697 mmHg 38%
    07:00 +25°C° 0 mm 5 mps 697 mmHg 33%
    08:00 +27°C° 0 mm 6 mps 698 mmHg 27%
    09:00 +29°C° 0 mm 6 mps 698 mmHg 25%
    10:00 +30°C° 0 mm 6 mps 698 mmHg 22%
    11:00 +33°C° 0 mm 6 mps 697 mmHg 19%
    12:00 +34°C° 0 mm 6 mps 697 mmHg 18%
    13:00 +34°C° 0 mm 6 mps 696 mmHg 16%
    14:00 +35°C° 0 mm 7 mps 696 mmHg 15%
    15:00 +35°C° 0 mm 7 mps 695 mmHg 15%
    16:00 +35°C° 0 mm 7 mps 694 mmHg 15%
    17:00 +35°C° 0 mm 7 mps 694 mmHg 15%
    18:00 +32°C° 0 mm 6 mps 694 mmHg 18%
    19:00 +29°C° 0 mm 5 mps 694 mmHg 21%
    20:00 +27°C° 0 mm 5 mps 694 mmHg 24%
    21:00 +26°C° 0 mm 5 mps 694 mmHg 24%
    22:00 +26°C° 0 mm 6 mps 694 mmHg 25%
    23:00 +24°C° 0 mm 7 mps 695 mmHg 25%

    18 December, Wednesday

    Time Temperature Precipitation Wind Pressure Humidity
    00:00 +24°C° 0 mm 8 mps 694 mmHg 25%
    01:00 +24°C° 0 mm 8 mps 694 mmHg 25%
    02:00 +24°C° 0 mm 9 mps 694 mmHg 24%
    03:00 +24°C° 0 mm 9 mps 694 mmHg 25%
    04:00 +23°C° 0 mm 9 mps 694 mmHg 26%
    05:00 +23°C° 0 mm 9 mps 695 mmHg 27%
    06:00 +24°C° 0 mm 8 mps 695 mmHg 26%
    07:00 +27°C° 0 mm 8 mps 696 mmHg 25%
    08:00 +28°C° 0 mm 7 mps 697 mmHg 25%
    09:00 +29°C° 0 mm 7 mps 697 mmHg 23%
    10:00 +32°C° 0 mm 6 mps 696 mmHg 21%
    11:00 +33°C° 0 mm 6 mps 696 mmHg 19%
    12:00 +34°C° 0 mm 6 mps 696 mmHg 18%
    13:00 +35°C° 0 mm 6 mps 695 mmHg 17%
    14:00 +36°C° 0 mm 7 mps 694 mmHg 17%
    15:00 +36°C° 0 mm 7 mps 694 mmHg 18%
    16:00 +36°C° 0 mm 7 mps 693 mmHg 19%
    17:00 +35°C° 0 mm 7 mps 692 mmHg 21%
    18:00 +33°C° 0 mm 6 mps 692 mmHg 25%
    19:00 +30°C° 0 mm 5 mps 692 mmHg 29%
    20:00 +28°C° 0 mm 4 mps 692 mmHg 33%
    21:00 +28°C° 0 mm 4 mps 693 mmHg 35%
    22:00 +27°C° 0 mm 5 mps 693 mmHg 37%
    23:00 +27°C° 0 mm 5 mps 693 mmHg 38%

    19 December, Thursday

    Time Temperature Precipitation Wind Pressure Humidity
    00:00 +26°C° 0 mm 5 mps 693 mmHg 40%
    01:00 +26°C° 0 mm 6 mps 693 mmHg 41%
    02:00 +26°C° 0 mm 6 mps 692 mmHg 42%
    03:00 +26°C° 0 mm 6 mps 693 mmHg 43%
    04:00 +24°C° 0 mm 6 mps 693 mmHg 44%
    05:00 +24°C° 0 mm 6 mps 693 mmHg 45%
    06:00 +26°C° 0 mm 6 mps 693 mmHg 41%
    07:00 +28°C° 0 mm 6 mps 694 mmHg 37%
    08:00 +29°C° 0 mm 5 mps 694 mmHg 34%
    09:00 +32°C° 0 mm 5 mps 694 mmHg 31%
    10:00 +34°C° 0 mm 4 mps 694 mmHg 28%
    11:00 +35°C° 0 mm 4 mps 694 mmHg 25%
    12:00 +36°C° 0 mm 4 mps 694 mmHg 23%
    13:00 +37°C° 0 mm 4 mps 693 mmHg 21%
    14:00 +38°C° 0 mm 4 mps 693 mmHg 19%
    15:00 +38°C° 0 mm 4 mps 692 mmHg 18%
    16:00 +38°C° 0 mm 4 mps 692 mmHg 18%
    17:00 +39°C° 0 mm 5 mps 691 mmHg 17%
    18:00 +36°C° 0 mm 4 mps 691 mmHg 21%
    19:00 +34°C° 0 mm 4 mps 691 mmHg 25%
    20:00 +32°C° 0 mm 4 mps 691 mmHg 29%
    21:00 +28°C° 1.1 mm 5 mps 692 mmHg 44%
    22:00 +24°C° 1.1 mm 6 mps 693 mmHg 60%
    23:00 +21°C° 1.1 mm 7 mps 694 mmHg 75%

    20 December, Friday

    Time Temperature Precipitation Wind Pressure Humidity
    00:00 +20°C° 0.7 mm 8 mps 694 mmHg 76%
    01:00 +17°C° 0.7 mm 10 mps 694 mmHg 77%
    02:00 +16°C° 0.7 mm 11 mps 695 mmHg 79%
    03:00 +16°C° 0.2 mm 10 mps 695 mmHg 77%
    04:00 +16°C° 0.2 mm 9 mps 695 mmHg 75%
    05:00 +16°C° 0.2 mm 8 mps 696 mmHg 73%
    06:00 +18°C° 0 mm 8 mps 696 mmHg 66%
    07:00 +20°C° 0 mm 8 mps 697 mmHg 58%
    08:00 +21°C° 0 mm 9 mps 697 mmHg 51%
    09:00 +23°C° 0 mm 9 mps 698 mmHg 44%
    10:00 +24°C° 0 mm 9 mps 698 mmHg 38%
    11:00 +27°C° 0 mm 9 mps 698 mmHg 31%
    12:00 +28°C° 0 mm 8 mps 697 mmHg 30%
    13:00 +29°C° 0 mm 8 mps 697 mmHg 28%
    14:00 +31°C° 0 mm 8 mps 696 mmHg 27%
    15:00 +29°C° 0 mm 8 mps 696 mmHg 28%
    16:00 +29°C° 0 mm 8 mps 696 mmHg 28%
    17:00 +28°C° 0 mm 8 mps 695 mmHg 29%
    18:00 +27°C° 0 mm 8 mps 695 mmHg 31%
    19:00 +26°C° 0 mm 8 mps 696 mmHg 33%
    20:00 +24°C° 0 mm 7 mps 696 mmHg 36%
    21:00 +23°C° 0 mm 7 mps 696 mmHg 37%
    22:00 +23°C° 0 mm 7 mps 696 mmHg 38%
    23:00 +22°C° 0 mm 7 mps 697 mmHg 39%
    Show more